Yatton Keynell, United Kingdom

12:15 PM BST on April 20, 2019 (GMT +0100)
Yatton Keynell

Weather History for 03740 - July, 1999

Change the Weather History Date:

Sunday, July 4, 1999

  Actual Average Record
Temperature  
Mean Temperature 62 °F -  
Max Temperature 68 °F 69 °F - ()
Min Temperature 57 °F 53 °F - ()
Degree Days  
Heating Degree Days 2    
Growing Degree Days 12 (Base 50)    
Moisture  
Dew Point 55 °F    
Average Humidity 79    
Maximum Humidity 94    
Minimum Humidity 60    
Precipitation  
Precipitation 0.00 in 0.07 in - ()
Sea Level Pressure  
Sea Level Pressure 29.78 in    
Wind  
Wind Speed 6 mph ()    
Max Wind Speed 12 mph    
Max Gust Speed -    
Visibility 6.0 miles    
Events      
T = Trace of Precipitation, MM = Missing Value Source: Averaged Metar Reports

Daily Weather History Graph

Daily Weather History Graph

Search for Another Location

Airport or City:

Astronomy

Jul. 04, 1999 Rise Set
Actual Time 4:56 AM BST 9:27 PM BST
Civil Twilight 4:09 AM BST 10:13 PM BST
Nautical Twilight 2:58 AM BST 11:24 PM BST
Astronomical Twilight 1:44 AM BST 12:39 AM BST
Moon 12:03 AM BST (7/4) 10:49 AM BST (7/4)
Length of Visible Light 18h 03m
Length of Day
16h 30m
Waning Gibbous, 71% of the Moon is Illuminated
Jul 4
Waning Gibbous
Jul 6
Last Quarter
Jul 13
New
Jul 20
First Quarter
Jul 28
Full

Hourly Weather History & Observations

Time (BST) Temp. Dew Point Humidity Pressure Visibility Wind Dir Wind Speed Gust Speed Precip Events Conditions
12:50 AM 59.0 °F 55.4 °F 88% 29.80 in 6.2 mi South 4.6 mph - N/A   Overcast
1:50 AM 59.0 °F 55.4 °F 88% 29.80 in 6.2 mi South 6.9 mph - N/A   Overcast
2:50 AM 57.2 °F 55.4 °F 94% 29.80 in 5.6 mi South 8.1 mph - N/A   Haze
3:50 AM 59.0 °F 55.4 °F 88% 29.80 in 4.3 mi South 6.9 mph - N/A   Haze
4:50 AM 57.2 °F 55.4 °F 94% 29.77 in 3.7 mi South 5.8 mph - N/A   Mostly Cloudy
5:50 AM 57.2 °F 55.4 °F 94% 29.77 in 6.2 mi South 6.9 mph - N/A   Mostly Cloudy
6:50 AM 59.0 °F 55.4 °F 88% 29.80 in 6.2 mi South 5.8 mph - N/A   Mostly Cloudy
7:50 AM 60.8 °F 55.4 °F 82% 29.80 in 6.2 mi South 8.1 mph - N/A   Mostly Cloudy
8:50 AM 60.8 °F 55.4 °F 82% 29.80 in 6.2 mi SSW 5.8 mph - N/A   Mostly Cloudy
9:50 AM 62.6 °F 55.4 °F 77% 29.80 in 6.2 mi South 10.4 mph - N/A   Mostly Cloudy
10:50 AM 66.2 °F 55.4 °F 68% 29.80 in 6.2 mi South 10.4 mph - N/A   Scattered Clouds
11:50 AM 68.0 °F 53.6 °F 60% 29.77 in 6.2 mi SSW 11.5 mph - N/A   Scattered Clouds
12:50 PM 66.2 °F 53.6 °F 64% 29.77 in 6.2 mi SSW 8.1 mph - N/A   Mostly Cloudy
1:50 PM 66.2 °F 55.4 °F 68% 29.77 in 6.2 mi SSW 8.1 mph - N/A   Mostly Cloudy
2:50 PM 66.2 °F 55.4 °F 68% 29.77 in 6.2 mi SSW 9.2 mph - N/A   Scattered Clouds
3:50 PM 66.2 °F 55.4 °F 68% 29.77 in 6.2 mi South 9.2 mph - N/A   Mostly Cloudy
4:50 PM 66.2 °F 55.4 °F 68% 29.77 in 6.2 mi South 9.2 mph - N/A   Mostly Cloudy
5:50 PM 66.2 °F 57.2 °F 73% 29.77 in 6.2 mi South 8.1 mph - N/A   Mostly Cloudy
6:50 PM 66.2 °F 55.4 °F 68% 29.77 in 6.2 mi South 6.9 mph - N/A   Mostly Cloudy
7:50 PM 64.4 °F 55.4 °F 73% 29.77 in 6.2 mi South 6.9 mph - N/A   Scattered Clouds
8:50 PM 62.6 °F 55.4 °F 77% 29.77 in 6.2 mi SSW 5.8 mph - N/A   Scattered Clouds
9:50 PM 60.8 °F 55.4 °F 82% 29.77 in - South 2.3 mph - N/A   Clear
10:50 PM 59.0 °F 55.4 °F 88% 29.77 in - South 2.3 mph - N/A   Clear
11:50 PM 57.2 °F 55.4 °F 94% 29.77 in - South 4.6 mph - N/A   Clear